Probability
3 1 0 0 1 1 1 2 3 3 3 2 2 3 3 3 3 4 2 1 0 0 1 2 3 6 9 13 16 18 17 16 13 11 12 13 11 9 6 4 2 2 3
3 2 1 0 0 0 1 1 2 3 4 4 4 3 2 2 3 4 3 1 0 0 0 1 3 4 7 10 14 17 18 16 13 11 12 13 11 9 7 5 4 4 3
3 3 1 0 0 0 0 1 2 3 4 5 5 3 1 0 1 2 2 1 0 0 0 1 2 3 4 6 11 15 18 17 14 12 12 12 11 9 8 7 7 6 4
3 3 2 1 0 0 0 1 2 3 3 4 4 3 1 0 0 1 2 1 0 0 0 1 2 3 3 5 8 12 15 15 13 12 12 11 10 10 9 8 9 8 6
3 3 3 2 0 0 0 0 1 2 3 3 3 3 2 1 0 1 1 1 0 0 0 0 1 2 3 4 5 7 10 11 11 10 11 11 10 9 8 8 9 8 7
3 3 3 2 0 0 0 0 0 1 2 3 3 3 2 1 0 0 0 0 0 0 0 0 0 0 1 2 3 5 6 9 10 8 8 9 9 7 7 7 8 8 9
1 2 3 2 1 0 0 0 0 0 1 2 3 3 3 1 0 0 0 0 0 0 0 0 0 0 0 1 2 3 4 8 10 8 6 6 7 7 7 7 6 8 10
0 1 2 2 1 0 0 0 0 0 0 1 3 3 3 2 1 0 0 0 0 0 0 0 0 0 0 0 1 1 2 6 9 8 6 5 6 6 7 7 6 7 9
0 0 1 1 0 0 0 0 0 0 0 1 2 3 3 2 1 0 0 0 0 1 1 0 0 0 0 0 0 0 0 2 5 6 7 7 6 6 7 7 6 7 9
0 0 0 0 0 0 0 0 0 0 0 0 1 2 2 1 1 0 0 0 0 1 2 1 0 0 0 0 0 0 0 0 2 5 6 6 7 7 6 5 6 8 9
0 0 0 0 0 0 0 0 0 0 0 0 0 1 1 1 0 0 0 0 0 1 2 1 0 0 0 0 0 0 0 0 1 2 3 4 5 6 4 4 6 8 9
0 0 0 0 0 0 0 0 0 0 0 0 0 0 0 0 0 0 0 0 0 0 1 1 0 0 0 0 0 0 0 0 0 1 1 1 2 3 2 3 5 7 7
0 0 0 0 0 0 0 0 0 0 0 0 0 0 0 0 0 0 0 0 0 0 0 0 0 0 0 0 0 0 0 0 0 0 0 0 0 0 0 1 4 5 4
0 0 0 0 0 0 0 0 0 0 0 0 0 0 0 0 0 0 0 0 0 0 0 0 0 0 0 0 0 0 0 0 0 0 0 0 0 0 0 0 1 1 1
0 0 0 0 0 0 0 0 0 0 0 0 0 0 0 0 0 0 0 0 0 0 0 0 0 0 0 0 0 0 0 0 0 0 0 0 0 0 0 0 0 0 0
0 0 0 0 0 0 0 0 0 0 0 0 0 0 0 0 0 0 0 0 0 0 0 0 0 0 0 0 0 0 0 0 0 0 0 0 0 0 0 0 0 0 0
0 0 0 0 0 0 0 0 0 0 0 0 0 0 0 0 0 0 0 0 0 0 0 0 0 0 0 0 0 0 0 0 0 0 0 0 0 0 0 0 0 0 0
0 0 0 0 0 0 0 0 0 0 0 0 0 0 0 0 0 0 0 0 0 0 0 0 0 0 0 0 0 0 0 0 0 0 0 0 0 0 0 0 0 0 0
0 0 0 0 0 0 0 0 0 0 0 0 0 0 0 0 0 0 0 0 0 0 0 0 0 0 0 0 0 0 0 0 0 0 0 0 0 0 0 0 0 0 0
0 0 0 0 0 0 0 0 0 0 0 0 0 0 0 0 0 0 0 0 0 0 0 0 0 0 0 0 0 0 0 0 0 0 0 0 0 0 0 0 0 0 0
0 0 0 0 0 0 0 0 0 0 0 0 0 0 0 0 0 0 0 0 0 0 0 0 0 0 0 0 0 0 0 0 0 0 0 0 0 0 0 0 0 0 0
0 0 0 0 0 0 0 0 0 0 0 0 0 0 0 0 0 0 0 0 0 0 0 0 0 0 0 0 0 0 0 0 0 0 0 0 0 0 0 0 0 0 0
0 0 0 0 0 0 0 0 0 0 0 0 0 0 0 0 0 0 0 0 0 0 0 0 0 0 0 0 0 0 0 0 0 0 0 0 0 0 0 0 0 0 0
0 0 0 0 0 0 0 0 0 0 0 0 0 0 0 0 0 0 0 0 0 0 0 0 0 0 0 0 0 0 0 0 0 0 0 0 0 0 0 0 0 0 0
0 0 0 0 0 0 0 0 0 0 0 0 0 0 0 0 0 0 0 0 0 0 0 0 0 0 0 0 0 0 0 0 0 0 0 0 0 0 0 0 0 0 0
0 0 0 0 0 0 0 0 0 0 0 0 0 0 0 0 0 0 0 0 0 0 0 0 0 0 0 0 0 0 0 0 0 0 0 0 0 0 0 0 0 0 0
Wind_Speed
2 3 2 3 3 3 4 4 5 5 6 6 5 6 6 6 6 6 4 6 9 11 13 13 13 14 14 14 14 14 14 14 14 14 14 14 14 14 15 16 15 15 15
2 3 3 3 4 4 4 5 6 5 5 5 6 6 7 7 7 7 7 6 8 11 12 13 14 15 15 15 15 15 14 14 14 14 14 14 14 14 15 16 16 16 16
2 3 3 3 4 4 5 5 6 5 5 6 7 7 7 7 8 8 8 6 7 9 11 13 14 15 16 16 16 16 15 15 15 15 14 14 14 15 15 15 16 16 16
3 3 3 3 4 4 4 4 5 5 5 6 6 6 6 6 9 9 8 7 7 7 9 11 13 15 16 16 17 16 16 15 16 16 16 15 15 15 15 16 15 16 16
3 3 3 3 4 4 4 4 5 5 6 7 7 7 7 7 8 8 9 9 8 8 8 9 12 14 15 16 17 17 17 16 16 16 16 16 16 16 16 16 16 16 16
3 3 3 4 4 4 4 4 5 6 6 7 7 7 7 8 7 7 8 8 8 9 9 9 8 9 13 15 17 17 18 17 17 17 17 17 17 16 16 16 16 17 18
4 4 4 4 4 4 5 6 6 7 6 6 7 7 7 8 8 7 7 7 8 9 10 10 8 8 7 12 15 17 18 18 17 16 16 17 17 17 17 17 17 17 18
4 4 5 4 4 4 5 5 6 5 5 5 6 7 6 6 5 6 7 7 8 8 9 10 10 10 9 7 9 13 15 17 18 17 17 16 17 18 18 18 18 18 18
5 5 5 5 5 5 5 6 6 6 6 6 5 5 6 6 8 6 8 7 8 8 8 9 11 11 11 9 9 10 13 16 18 18 17 18 18 18 19 19 18 19 19
5 5 5 6 6 5 6 6 6 6 7 6 5 5 7 8 8 7 6 7 9 10 10 9 10 11 11 9 10 12 13 15 18 18 18 18 18 19 19 19 19 19 18
5 5 6 6 6 6 7 7 7 7 6 7 6 6 7 7 9 9 11 10 9 9 9 9 9 9 10 11 10 11 12 14 16 18 18 19 19 19 19 18 19 19 18
4 5 6 6 6 6 7 7 7 9 8 8 8 7 7 7 8 8 11 11 11 9 10 9 9 10 9 10 12 11 12 14 16 17 17 18 18 19 18 19 19 18 18
4 5 6 6 6 7 7 8 8 9 9 10 9 8 8 8 8 9 10 11 13 11 10 9 9 9 9 9 9 11 12 14 15 16 17 17 17 17 18 18 17 16 15
5 7 7 8 8 8 8 8 8 9 9 10 11 11 9 9 8 9 9 10 12 11 10 12 9 9 8 8 9 11 12 13 14 15 16 16 16 16 16 16 15 14 13
6 7 8 8 9 9 9 9 8 9 9 10 10 11 10 9 9 9 9 9 10 12 12 11 9 9 9 9 10 10 12 13 14 15 15 15 15 15 14 13 13 12 11
7 8 8 9 9 9 9 9 9 9 10 10 9 11 11 9 9 9 9 10 10 11 13 10 10 10 11 10 12 12 12 14 14 15 14 14 14 13 12 12 11 11 10
7 8 9 9 9 9 9 9 10 10 11 11 11 12 12 12 10 9 9 9 10 10 12 12 10 11 12 12 11 11 11 11 9 13 14 13 13 12 11 11 10 10 10
8 8 9 9 10 10 10 10 11 11 11 12 12 12 12 10 12 10 9 10 10 10 11 13 11 10 12 11 11 11 10 9 8 9 12 12 12 11 11 10 9 9 8
8 8 9 10 10 10 10 10 11 11 12 12 12 12 12 12 12 10 11 10 9 9 9 10 11 10 9 9 10 10 10 8 8 7 7 8 9 9 9 9 8 8 8
8 9 9 10 10 10 10 10 11 11 12 12 12 12 13 12 13 12 10 11 10 10 10 9 9 9 8 8 7 7 7 6 5 4 4 5 5 6 7 8 8 7 7
9 9 9 10 10 9 9 10 11 11 12 12 12 12 12 13 15 13 10 10 10 9 8 8 8 8 8 7 6 6 6 5 5 4 3 2 2 2 3 5 6 6 6
9 9 9 10 11 9 12 15 13 11 11 12 12 12 12 12 13 15 16 16 14 12 10 9 8 9 9 8 6 6 6 6 5 3 2 1 1 1 1 1 4 6 6
9 9 10 10 11 11 14 15 15 12 11 11 11 11 9 9 12 11 12 14 15 16 15 12 11 11 10 8 7 7 6 5 5 4 2 1 1 1 1 1 5 6 5
8 9 10 10 11 11 14 15 14 11 10 10 11 11 10 10 10 10 10 10 11 11 11 10 10 11 10 9 8 7 6 4 3 3 2 1 1 1 1 0 4 4 4
8 9 9 10 10 11 13 14 13 9 8 10 10 9 9 10 12 13 10 10 10 9 9 11 12 12 12 11 8 4 4 3 2 2 2 1 0 1 2 1 2 3 4
8 8 9 9 9 9 12 13 13 7 8 7 7 8 9 10 11 12 10 9 10 9 8 7 8 8 7 7 7 6 5 4 3 2 2 1 2 1 1 1 1 1 2
Wind_Direction
352 348 340 337 335 332 327 322 317 316 311 303 295 291 288 283 279 276 277 273 272 274 274 273 271 267 265 259 252 249 245 243 243 243 241 239 238 236 234 232 233 234 233
342 333 328 330 330 328 326 317 315 310 306 301 294 289 284 282 278 277 275 269 264 270 272 271 270 268 267 264 258 252 247 245 243 245 244 242 239 239 237 235 234 234 235
331 324 321 321 323 320 318 313 312 307 304 300 292 289 286 283 279 278 276 275 270 263 265 268 268 268 267 266 263 258 251 247 245 244 244 244 243 240 239 238 236 235 235
322 318 316 315 320 316 314 315 312 309 309 306 299 292 285 282 279 278 274 271 273 273 268 267 268 268 268 268 266 264 257 250 246 244 243 243 243 242 240 239 239 237 235
313 312 310 312 313 311 310 312 314 311 308 307 301 293 285 279 279 276 274 273 272 272 274 272 267 266 267 269 268 266 264 256 250 247 243 241 240 242 242 242 241 241 239
301 307 301 307 308 303 304 305 308 309 303 301 298 292 283 278 273 270 273 272 270 271 271 273 269 263 261 265 268 266 265 261 255 249 246 243 239 240 242 243 243 244 241
297 297 297 300 301 300 302 304 304 305 308 309 299 295 283 269 267 267 273 275 275 273 272 270 268 269 266 260 261 265 266 265 259 252 247 245 242 242 242 244 245 246 245
289 290 292 294 295 295 294 297 297 296 300 307 303 305 300 286 264 271 271 273 275 276 273 270 267 267 267 266 263 262 265 266 264 256 249 248 247 246 244 245 246 247 247
284 286 288 289 290 289 290 293 291 287 291 293 290 290 297 297 312 278 274 273 278 277 274 274 270 269 266 264 265 257 259 265 265 260 254 251 250 250 247 245 245 247 248
285 285 285 285 286 285 285 286 283 280 279 281 278 264 269 286 290 296 283 278 281 278 274 275 274 272 269 268 264 262 260 261 263 262 261 257 252 252 251 246 246 247 250
283 284 283 283 282 280 280 280 279 274 269 270 272 273 272 272 269 276 287 289 283 276 276 275 274 272 271 269 265 262 261 260 262 264 264 263 257 252 252 251 249 249 250
282 283 284 281 279 278 277 276 274 271 266 265 264 263 266 270 272 275 280 287 288 285 281 276 273 270 268 267 266 267 264 259 261 265 266 264 261 256 254 252 253 252 251
285 288 288 284 282 279 278 277 274 271 267 264 263 263 261 262 269 273 278 283 286 288 284 276 271 270 268 268 268 267 263 260 261 263 264 262 260 258 256 253 253 253 254
287 291 288 284 283 281 279 275 272 268 266 264 263 262 262 262 262 264 269 279 285 285 281 279 278 271 273 273 274 276 268 261 262 264 264 262 259 256 254 252 250 250 252
286 287 286 284 283 281 278 276 270 271 270 266 265 264 262 262 259 260 262 262 270 282 283 286 285 279 277 275 273 274 274 265 264 264 264 263 257 251 248 246 245 246 244
284 284 284 284 284 282 279 276 274 272 272 269 266 266 264 263 261 259 259 260 259 266 277 282 286 286 281 277 275 273 275 271 262 258 259 260 252 245 243 241 237 237 240
285 285 285 285 284 282 281 277 274 275 272 272 268 267 267 267 265 262 260 261 260 261 269 280 283 285 282 280 280 275 275 270 263 256 256 252 248 241 235 233 233 233 230
287 286 285 283 282 280 279 278 278 276 274 273 272 270 270 270 267 265 262 262 263 262 265 276 283 283 280 279 280 279 277 274 268 261 252 247 244 237 231 225 222 223 220
289 288 285 282 281 281 280 278 278 276 274 273 273 272 271 271 269 267 266 264 265 265 264 269 278 280 281 279 282 281 277 277 271 262 250 245 237 230 224 216 215 212 208
290 289 287 284 283 281 279 279 279 278 277 275 273 271 271 268 269 270 269 268 267 266 264 265 271 276 278 278 274 277 280 280 278 273 264 255 234 224 217 211 212 205 193
293 292 291 289 286 282 279 283 283 281 281 279 276 273 271 269 269 269 270 271 270 267 267 267 270 273 273 271 268 272 272 280 288 271 259 261 251 239 221 200 193 179 173
298 296 293 293 290 285 287 288 289 285 283 280 279 278 276 271 270 270 270 270 270 268 268 268 270 267 271 271 273 273 274 276 282 277 245 274 271 274 272 211 146 148 158
300 298 297 296 293 292 294 292 290 289 285 282 282 282 279 278 277 274 274 274 272 267 264 263 263 264 269 271 269 269 268 267 269 269 235 278 306 281 274 118 126 140 151
300 298 296 296 296 298 303 300 296 289 283 282 283 282 282 282 280 281 280 278 275 272 269 265 262 265 265 267 264 260 260 260 277 278 245 225 275 292 331 108 118 138 153
303 300 298 297 298 301 306 308 305 293 286 284 283 282 282 283 286 285 280 277 278 280 278 272 271 271 272 270 262 252 238 217 238 280 281 201 199 36 15 16 93 126 138
300 300 298 298 300 301 307 309 308 296 293 292 289 286 282 285 291 291 283 279 279 283 286 287 284 281 274 269 261 248 232 212 213 246 265 174 161 120 55 11 29 97 130